TimeBST,TemperatureF,Dew PointF,Humidity,Sea Level PressureIn,VisibilityMPH,Wind Direction,Wind SpeedMPH,Gust SpeedMPH,PrecipitationIn,Events,Conditions,WindDirDegrees,DateUTC
12:50 AM,58,57,94,29.49,7,South,10.4,,,,Partly Cloudy,180,2012-10-11 23:50:00
12:50 AM,57.2,57.2,100,29.47,6.2,South,10.4,-,N/A,,Overcast,180,2012-10-11 23:50:00
1:50 AM,57.2,57.2,100,29.47,6.2,SSW,11.5,-,N/A,,Overcast,200,2012-10-12 00:50:00
2:50 AM,57.2,55.4,94,29.47,6.2,WSW,13.8,-,N/A,,Overcast,240,2012-10-12 01:50:00
3:50 AM,55,53,92,29.49,9,WSW,13.8,,,Rain,Light Rain,240,2012-10-12 02:50:00
3:50 AM,55.4,53.6,94,29.47,6.2,WSW,13.8,-,N/A,Rain,Light Rain,240,2012-10-12 02:50:00
4:50 AM,53.6,50.0,88,29.47,6.2,WSW,17.3,-,N/A,Rain,Light Rain,250,2012-10-12 03:50:00
5:50 AM,51.8,50.0,94,29.50,6.2,WSW,13.8,-,N/A,,Overcast,250,2012-10-12 04:50:00
6:50 AM,51,50,96,29.54,5,West,16.1,,,Rain,Light Rain,260,2012-10-12 05:50:00
6:50 AM,51.8,50.0,94,29.53,5.0,West,16.1,-,N/A,Rain,Light Rain,260,2012-10-12 05:50:00
7:50 AM,51.8,50.0,94,29.56,5.6,West,13.8,-,N/A,,Overcast,260,2012-10-12 06:50:00
9:50 AM,51,46,79,29.63,44,West,20.7,,,Rain,Light Drizzle,280,2012-10-12 08:50:00
9:50 AM,50.0,46.4,87,29.62,6.2,West,20.7,-,N/A,,Mostly Cloudy,280,2012-10-12 08:50:00
10:50 AM,51.8,46.4,82,29.62,6.2,West,19.6,-,N/A,,Scattered Clouds,280,2012-10-12 09:50:00
11:50 AM,51.8,44.6,76,29.65,6.2,West,20.7,-,N/A,,Scattered Clouds,270,2012-10-12 10:50:00
12:50 PM,53,42,56,29.69,31,West,20.7,,,,Partly Cloudy,280,2012-10-12 11:50:00
12:50 PM,53.6,41.0,62,29.68,6.2,West,20.7,-,N/A,,Partly Cloudy,280,2012-10-12 11:50:00
1:50 PM,53.6,41.0,62,29.68,6.2,West,19.6,-,N/A,,Partly Cloudy,270,2012-10-12 12:50:00
2:50 PM,53.6,42.8,67,29.71,6.2,West,17.3,-,N/A,,Scattered Clouds,280,2012-10-12 13:50:00
3:50 PM,53,42,58,29.73,37,West,17.3,,,,Scattered Clouds,260,2012-10-12 14:50:00
3:50 PM,53.6,42.8,67,29.71,6.2,West,17.3,-,N/A,,Partly Cloudy,260,2012-10-12 14:50:00
4:50 PM,51.8,42.8,71,29.71,6.2,West,13.8,-,N/A,,Partly Cloudy,270,2012-10-12 15:50:00
5:50 PM,48.2,41.0,76,29.77,-9999.0,West,18.4,-,N/A,Rain,Light Rain Showers,270,2012-10-12 16:50:00
6:50 PM,45,40,78,29.78,47,WSW,9.2,,,Rain,Rain,240,2012-10-12 17:50:00
6:50 PM,44.6,41.0,87,29.77,6.2,WSW,9.2,-,N/A,,Scattered Clouds,240,2012-10-12 17:50:00
7:50 PM,42.8,39.2,87,29.77,6.2,WSW,6.9,-,N/A,,Unknown,240,2012-10-12 18:50:00
8:50 PM,42.8,39.2,87,29.77,6.2,SW,6.9,-,N/A,,Unknown,220,2012-10-12 19:50:00
9:50 PM,43,39,82,29.79,34,SW,5.8,,,,,220,2012-10-12 20:50:00
9:50 PM,42.8,39.2,87,29.77,6.2,SW,5.8,-,N/A,,Unknown,220,2012-10-12 20:50:00
10:50 PM,41.0,39.2,93,29.77,6.2,SW,3.5,-,N/A,,Unknown,220,2012-10-12 21:50:00
11:50 PM,41.0,39.2,93,29.77,6.2,SSW,5.8,-,N/A,,Unknown,210,2012-10-12 22:50:00